Temp
12 11 11 11 11 11 10 10 9 9 8 8 9 8 8 9 9 9 9 8 11 10 11 12 13 13 14 14 14 14 15 15 16 16 16 16 17 17 18 18 18 18 18 17 17 17 17
11 11 11 11 11 10 10 9 8 8 8 9 8 8 8 10 12 12 11 12 12 12 12 12 12 13 13 15 14 14 15 15 15 15 15 14 15 15 17 17 17 18 17 17 17 17 18
11 11 11 11 11 10 10 9 8 8 8 8 8 8 10 11 13 13 12 12 12 12 12 12 12 12 12 15 14 14 14 15 15 15 14 14 14 15 16 17 17 16 17 17 16 17 17
11 11 11 11 10 10 10 9 8 8 8 8 8 8 9 11 13 12 12 12 12 13 12 12 12 12 12 14 14 14 14 15 15 15 15 15 15 15 16 16 16 17 17 16 17 17 17
11 11 11 11 10 11 10 8 8 8 8 8 8 8 9 11 11 12 12 12 14 13 13 12 12 12 13 14 14 14 14 14 14 15 15 15 15 15 16 14 12 15 13 16 17 16 17
12 11 11 11 10 10 9 8 8 8 8 8 8 9 10 11 11 12 13 13 13 13 12 13 12 13 13 13 13 14 14 14 13 13 14 15 12 12 12 13 13 15 15 16 17 16 16
12 12 11 11 11 10 9 8 8 9 8 8 9 9 10 11 11 11 13 13 10 11 10 10 11 12 12 13 13 13 13 13 14 14 14 14 10 10 14 14 17 17 17 18 16 16 16
12 12 12 11 11 10 9 9 9 9 9 9 9 9 10 11 11 11 12 8 9 8 8 10 12 12 13 12 12 12 13 13 13 14 14 11 12 14 15 15 15 16 17 17 16 16 15
12 12 12 12 11 10 9 9 9 9 9 9 9 10 10 10 11 10 10 9 9 9 7 9 12 12 12 12 12 11 12 11 13 13 14 12 15 16 16 17 16 16 15 16 16 15 15
12 12 12 12 12 11 10 9 9 9 9 9 9 9 10 10 11 10 9 9 9 9 5 8 12 12 13 12 12 13 12 12 12 13 13 13 14 15 16 16 14 16 14 16 15 12 12
13 12 12 12 12 12 11 9 9 9 9 9 9 9 10 9 9 9 9 9 9 9 10 11 13 13 13 12 13 12 12 12 12 12 12 12 13 14 15 15 15 14 13 13 12 8 9
13 12 12 12 11 11 11 11 9 8 9 9 9 9 9 9 9 9 9 10 9 8 10 11 13 13 12 12 13 12 12 12 12 12 12 12 13 13 14 13 14 12 12 10 8 7 6
12 12 12 11 11 11 11 9 9 8 8 9 9 8 8 8 8 9 9 9 7 7 13 13 12 13 14 13 12 12 12 11 11 10 11 11 12 13 14 13 13 13 11 7 8 6 10
12 11 11 11 11 11 10 9 8 8 9 8 8 8 8 8 8 9 9 8 10 11 12 14 14 13 13 13 13 13 12 10 10 11 8 8 8 12 13 13 12 11 12 9 9 8 9
12 12 11 11 10 10 9 8 8 8 8 8 8 8 8 8 9 9 7 6 9 9 13 12 12 12 13 13 13 12 11 11 12 11 10 9 11 12 13 13 13 12 10 12 10 10 7
12 12 12 11 11 10 7 7 7 7 7 8 8 8 9 8 9 8 7 9 10 12 12 12 12 13 12 13 12 12 12 12 12 13 12 12 10 12 12 13 13 12 13 10 10 9 10
11 12 12 11 10 8 7 6 6 6 6 6 7 7 8 8 8 5 6 7 10 11 12 11 11 11 11 12 12 12 13 11 11 12 12 12 10 11 12 11 10 11 11 11 9 8 5
11 11 12 11 9 7 6 6 5 5 6 6 7 6 7 7 6 5 5 8 10 10 10 11 11 10 10 11 11 12 11 12 10 12 12 11 10 9 10 11 11 11 12 11 8 9 6
10 11 11 9 8 7 6 6 5 5 5 6 6 6 7 7 5 5 7 9 9 10 9 9 10 10 10 10 11 10 11 10 10 10 10 10 9 8 10 11 12 12 12 12 11 8 9
10 10 10 8 7 6 5 4 4 4 5 5 6 6 6 6 5 6 7 8 9 9 8 9 9 9 9 9 9 9 10 10 10 10 11 10 9 9 8 11 11 11 12 12 11 7 10
9 10 8 7 6 5 4 4 4 4 4 5 5 5 7 6 6 6 7 8 8 8 8 8 8 8 9 7 8 8 8 8 9 9 9 9 8 8 9 9 10 10 10 11 10 10 10
9 8 6 6 4 4 4 4 3 3 4 4 5 6 5 5 6 7 7 6 7 7 7 7 7 7 7 7 8 8 6 7 8 7 8 8 8 7 6 8 8 8 9 10 11 11 10
8 6 5 4 4 4 4 3 3 3 3 5 5 5 6 6 5 6 6 6 7 7 6 6 7 6 6 7 7 6 6 5 6 6 6 6 6 6 6 8 7 7 8 9 11 12 12
7 5 4 3 3 3 3 2 2 3 4 5 5 5 4 5 5 6 7 7 7 6 6 5 5 5 6 6 5 4 3 3 4 4 5 6 6 6 6 7 5 9 9 9 10 11 10
4 4 3 3 2 2 2 3 3 4 4 5 5 5 4 3 5 5 6 5 5 6 6 6 6 5 5 6 5 5 5 5 5 4 3 5 5 4 5 5 6 9 9 10 10 10 8
3 3 3 2 2 2 3 3 4 4 4 6 5 5 4 3 3 5 5 5 4 3 4 5 5 5 4 4 5 3 4 6 6 6 3 4 5 6 5 6 6 8 7 7 10 8 8
3 2 2 2 2 2 3 3 3 4 5 5 4 5 4 1 2 4 3 3 3 2 2 3 4 4 3 3 4 3 3 5 5 5 4 3 4 5 5 6 5 7 6 8 8 7 8
2 2 2 3 3 3 2 3 3 4 5 5 3 4 4 2 2 3 4 3 2 2 2 2 2 1 1 1 3 3 3 2 2 3 4 3 3 3 5 5 5 5 7 8 5 6 7
2 2 3 3 3 3 2 2 3 3 4 4 3 3 4 2 2 3 3 4 4 3 2 1 2 1 1 -1 -0 0 2 -1 0 1 2 3 3 3 3 4 4 4 4 4 4 5 6
Height
861 860 859 857 857 856 853 851 849 846 843 840 836 833 829 825 822 818 814 811 807 805 802 800 797 794 791 792 793 792 789 786 785 784 783 782 779 779 783 783 783 788 788 786 788 786 786
861 859 858 857 855 854 852 849 847 845 842 838 835 831 828 824 820 816 812 809 806 803 800 797 796 794 793 796 794 792 790 788 786 784 784 783 783 782 781 782 785 784 789 789 789 787 786
859 858 856 855 854 852 850 848 846 843 840 837 834 830 826 822 818 814 811 808 805 801 799 796 795 794 795 796 794 792 790 788 787 785 784 785 784 784 783 787 784 787 792 791 791 789 788
856 856 855 852 851 850 847 846 844 841 839 835 833 829 826 821 817 812 810 806 802 799 798 795 795 794 797 795 793 792 791 789 788 786 786 784 784 784 785 786 788 792 793 801 789 791 788
854 853 852 851 849 847 846 844 842 840 837 835 832 828 824 820 816 812 807 803 799 799 798 796 796 794 797 795 794 793 792 790 787 786 785 786 786 788 789 796 810 800 816 800 793 790 789
850 850 849 848 847 845 843 842 840 838 836 832 830 827 823 820 816 811 805 800 799 799 799 798 797 800 797 799 795 793 792 792 790 787 786 787 792 797 800 802 818 802 803 796 792 791 791
846 846 847 846 845 842 841 839 838 836 834 832 828 825 822 819 816 812 805 800 805 803 802 808 807 804 800 798 796 795 793 792 790 789 793 790 808 817 796 792 785 788 790 788 792 789 791
840 839 841 842 842 841 839 836 835 834 832 830 827 823 821 818 817 814 810 812 821 824 818 807 804 802 799 799 800 795 795 796 794 795 792 804 805 792 788 789 791 790 789 792 794 790 793
838 836 834 835 837 838 837 835 832 831 830 828 826 823 820 817 815 816 815 819 819 819 824 812 804 803 801 801 801 799 798 798 796 796 795 802 792 785 783 784 791 789 796 792 794 793 793
830 832 832 830 830 832 834 833 831 829 827 826 824 822 819 817 817 816 818 820 819 819 836 821 804 803 800 799 801 799 798 800 797 798 796 797 791 788 786 786 793 793 792 790 794 810 818
822 824 826 826 825 825 826 829 830 828 826 824 823 821 818 817 816 816 820 820 818 820 839 809 802 800 798 801 802 800 799 798 800 800 801 801 795 792 791 786 783 793 795 801 807 830 830
813 815 817 819 820 821 820 820 823 826 825 823 821 819 818 818 817 818 816 817 819 834 836 809 798 798 800 798 801 801 800 799 799 800 797 798 795 794 790 792 787 795 798 810 828 838 858
805 806 808 811 813 814 815 818 818 820 824 822 820 819 818 816 816 816 815 816 840 848 803 803 801 796 796 796 800 801 801 803 805 816 804 801 796 793 789 795 794 796 804 846 845 868 825
796 798 799 801 804 806 808 811 814 816 818 819 818 817 816 816 815 813 815 824 830 808 804 794 795 795 797 794 799 799 801 805 803 801 821 827 824 796 792 795 797 803 803 824 838 840 824
784 786 788 791 794 797 800 803 807 811 814 816 817 816 814 815 814 814 818 843 818 810 795 798 798 796 795 794 799 800 804 803 796 801 813 820 804 793 793 794 797 800 815 802 814 819 838
775 774 776 778 782 786 790 795 800 806 811 813 814 814 812 813 814 814 822 813 805 794 794 796 799 793 794 795 798 800 800 798 796 795 796 800 811 794 793 794 795 798 797 814 818 827 822
767 764 765 767 770 775 782 788 793 799 805 809 811 812 810 811 814 818 826 817 801 797 795 798 801 799 800 798 796 798 795 800 797 795 796 798 806 803 795 797 797 800 801 800 814 822 853
759 759 757 760 761 769 777 782 789 794 798 805 807 813 808 809 820 820 820 805 797 798 796 797 798 799 800 799 797 796 796 794 797 795 796 802 808 812 802 790 789 789 789 791 817 815 833
752 751 751 755 763 769 775 780 784 789 793 798 801 806 805 808 818 817 806 800 797 798 799 800 799 800 801 801 799 797 796 800 797 798 800 800 807 822 805 798 790 788 788 787 794 805 810
741 743 743 750 758 766 773 778 781 786 791 797 800 801 805 804 807 806 802 800 798 797 800 800 801 802 802 805 802 801 799 799 798 799 796 799 807 806 818 798 797 794 788 786 789 816 798
737 735 735 742 752 761 767 774 779 784 789 794 792 795 789 795 800 803 801 799 796 800 799 799 800 800 801 814 808 804 806 804 803 802 802 803 808 807 802 801 798 797 795 789 792 792 795
733 732 734 741 749 755 764 772 777 782 790 792 787 789 792 795 792 795 801 802 798 799 800 800 802 804 803 805 803 804 812 807 803 809 806 807 808 812 815 803 801 799 792 785 782 781 784
732 731 734 741 748 752 762 770 776 781 787 785 782 783 785 789 794 797 796 798 795 796 807 802 801 809 808 807 807 811 813 814 813 812 812 811 813 816 817 801 805 802 786 778 770 766 767
730 733 735 744 749 754 765 772 775 779 784 784 783 784 789 791 791 790 789 791 793 798 803 807 808 810 811 810 811 813 815 815 815 814 812 813 815 817 815 806 821 783 777 774 772 768 769
731 732 739 745 752 761 766 771 774 776 780 784 781 783 788 796 787 790 791 793 796 798 802 804 804 806 808 810 814 812 811 806 803 805 811 810 812 821 821 814 798 779 774 770 770 772 777
729 735 741 750 757 763 768 769 773 775 779 782 780 783 785 791 793 787 792 795 802 806 806 806 806 807 810 816 815 823 813 802 800 799 806 809 808 809 812 810 802 780 781 777 769 783 779
731 741 747 754 761 766 767 770 771 774 777 781 782 782 785 795 792 790 794 799 801 806 810 808 808 809 812 820 816 818 818 805 807 801 807 815 814 804 805 798 796 785 784 775 784 794 783
737 744 750 758 764 766 768 770 773 776 777 779 782 782 784 790 791 791 792 796 802 805 807 810 813 815 820 825 817 813 816 817 816 810 804 809 814 813 807 806 804 789 782 783 797 789 786
741 747 754 761 765 768 770 771 774 777 778 780 782 783 785 786 792 792 794 794 799 799 804 810 810 813 814 829 826 823 815 828 828 823 811 810 809 810 807 797 795 795 795 794 796 792 787
Wind_Speed
3 6 8 11 14 15 15 15 13 13 14 14 15 17 18 20 22 23 24 24 20 21 21 21 20 15 6 3 2 9 10 9 7 7 5 2 3 4 4 3 3 1 2 3 1 3 4
7 9 11 12 14 14 15 13 12 12 13 14 15 17 19 21 22 24 24 20 20 22 23 20 13 8 3 2 3 9 10 9 10 7 5 5 2 3 2 2 5 3 1 3 3 3 2
12 13 12 13 14 15 14 12 12 13 13 13 15 17 19 22 23 22 20 21 23 22 17 10 4 4 3 1 6 8 10 6 7 7 3 4 4 1 1 2 0 4 3 2 3 3 2
14 14 14 14 14 15 14 12 12 12 13 14 15 17 19 23 22 20 22 23 25 11 8 4 4 2 0 4 3 11 12 3 5 5 3 3 3 1 2 2 4 2 3 1 1 4 2
18 15 15 15 14 14 12 12 12 11 12 13 14 16 18 21 20 21 24 27 9 2 5 3 3 3 1 3 4 11 8 7 11 3 2 3 2 2 2 5 4 3 3 4 2 5 2
18 17 16 16 15 15 11 11 11 13 14 13 14 15 17 20 18 19 23 12 4 3 3 2 2 2 4 4 6 11 9 8 4 5 2 3 4 3 3 3 4 5 4 4 4 4 3
20 18 18 17 16 15 12 11 12 13 12 12 13 14 16 18 15 18 21 5 7 4 9 1 5 3 4 10 5 3 8 12 2 2 2 2 4 4 8 5 1 3 3 2 1 2 2
22 20 19 18 18 16 13 11 11 11 11 11 12 13 15 16 11 14 13 6 2 2 6 6 5 3 3 4 3 5 13 3 4 1 1 5 3 6 5 4 5 4 2 3 1 2 1
27 24 21 19 19 17 15 13 12 10 10 11 11 12 14 14 5 6 17 7 4 1 1 6 3 3 2 3 2 5 5 3 1 3 1 4 3 5 3 2 3 3 4 4 3 1 2
30 29 27 23 21 19 17 16 13 11 10 10 10 11 13 13 3 5 4 7 4 1 4 6 1 2 1 0 2 1 3 1 3 2 3 4 4 3 1 1 5 3 4 2 5 3 3
34 33 32 30 25 22 19 17 15 13 10 9 10 10 8 6 2 3 4 8 5 0 5 3 2 1 0 2 2 1 1 2 2 3 4 4 4 2 2 2 3 3 6 4 3 4 4
38 37 37 34 30 26 23 19 16 15 12 10 9 7 4 1 2 2 6 8 1 5 6 1 2 1 2 1 1 1 2 1 1 2 1 4 3 2 1 3 1 8 6 6 4 3 2
41 41 40 39 35 30 26 21 17 15 12 9 7 5 3 2 1 6 7 2 5 4 2 2 3 2 1 2 2 2 1 3 1 3 3 3 2 3 1 4 5 4 5 2 3 3 6
42 44 44 43 40 35 29 22 18 15 11 8 6 4 3 4 3 3 2 4 3 3 4 2 1 2 4 4 2 2 2 2 3 3 2 3 6 3 1 2 5 4 3 4 8 4 4
46 49 49 46 44 39 32 25 20 16 12 8 6 4 4 5 3 2 4 3 7 6 2 1 3 3 0 2 1 1 3 2 1 6 4 1 4 1 1 1 2 2 3 2 4 2 3
40 54 52 52 48 43 33 27 23 18 12 9 4 2 4 5 3 3 3 5 4 1 3 2 4 2 4 3 3 3 3 2 1 2 2 2 3 2 0 1 3 3 1 1 2 2 4
30 48 54 54 50 43 35 29 26 21 16 12 4 1 5 5 6 3 3 6 3 1 1 4 4 1 1 1 2 2 2 1 1 1 1 1 3 4 2 6 7 3 3 3 3 3 5
34 30 51 53 47 41 33 29 26 26 21 16 4 2 6 10 2 2 3 5 4 2 2 0 2 4 4 2 2 3 5 2 2 1 3 2 2 4 8 4 4 4 6 6 4 4 1
28 31 34 38 34 32 28 29 27 27 23 12 4 3 5 5 4 3 4 2 4 3 2 1 2 1 1 3 3 3 1 0 3 2 4 1 1 2 6 4 2 2 3 3 3 3 5
30 32 33 38 36 29 32 28 27 27 23 15 2 3 2 2 2 4 4 5 4 4 4 3 2 2 2 2 3 2 2 2 1 2 2 2 2 5 5 2 2 4 4 4 3 2 4
26 30 43 40 36 35 31 29 27 25 24 6 3 4 3 4 4 4 1 1 6 5 3 6 4 5 3 3 3 4 1 3 3 5 2 3 3 1 4 5 4 8 8 8 5 5 6
27 38 36 40 36 33 27 26 24 27 21 8 3 3 1 2 4 11 5 4 6 2 5 3 3 2 2 4 1 1 1 1 2 4 1 2 1 2 4 7 8 11 10 12 13 10 7
37 36 40 34 32 28 26 24 25 25 17 7 3 2 3 4 4 5 4 5 6 6 2 1 4 4 3 1 2 3 4 4 3 1 1 2 2 0 4 1 7 7 13 14 12 11 14
39 37 35 29 24 22 20 19 20 21 24 5 4 3 3 2 4 5 4 5 4 3 5 3 4 4 3 1 2 3 5 8 6 9 6 4 4 3 3 2 3 6 5 7 7 7 6
37 33 30 28 24 18 14 14 16 20 26 10 6 3 3 2 3 2 6 4 5 3 2 4 3 3 4 2 1 3 2 2 6 9 8 8 3 1 2 3 6 8 6 3 3 2 4
34 32 30 26 22 18 15 14 15 17 18 11 8 5 3 4 3 2 4 4 4 3 1 2 2 3 4 2 1 3 4 3 2 1 4 8 7 4 3 3 4 2 6 7 4 3 5
36 33 30 27 22 18 18 16 15 14 15 15 6 7 4 3 1 2 3 4 4 3 3 2 3 2 3 2 2 3 3 2 3 3 4 4 3 13 8 5 6 3 8 4 1 2 4
35 32 29 25 21 19 17 16 15 14 15 11 9 6 4 2 1 2 2 4 2 2 4 3 3 2 2 2 3 3 3 2 2 3 2 5 6 4 3 4 7 6 4 2 2 5 3
33 31 27 24 21 19 16 15 13 11 10 9 6 9 8 5 2 3 3 4 2 4 4 1 3 2 3 2 1 1 1 1 1 3 4 2 4 2 4 3 3 3 2 5 2 5 6
Wind_Direction
252 281 309 317 319 322 324 328 330 335 340 344 345 342 339 337 335 333 328 324 325 325 326 326 330 337 359 351 1 350 348 340 346 342 338 305 172 157 171 156 101 112 196 82 160 125 113
279 288 298 306 312 317 321 324 327 332 336 339 340 341 340 340 339 332 329 333 329 326 322 321 327 344 28 324 11 348 344 355 7 8 359 6 357 338 99 130 146 135 108 142 229 212 158
279 291 296 302 307 313 317 319 323 327 330 331 335 337 337 341 339 335 334 331 326 325 326 337 349 26 67 288 338 346 335 327 359 6 358 3 343 319 67 98 345 122 115 329 227 229 187
277 285 292 297 302 306 311 316 320 325 327 333 334 334 337 341 340 339 335 329 324 324 342 357 22 69 320 1 36 359 356 344 323 325 351 326 337 327 59 123 39 108 74 99 212 202 195
271 279 286 292 296 301 306 311 309 314 318 322 324 331 338 344 343 340 334 331 335 5 19 51 55 55 39 342 15 350 352 323 322 329 336 321 354 95 45 99 26 357 212 191 298 217 148
263 273 281 292 294 297 297 304 308 312 312 314 321 329 341 347 345 344 338 341 45 54 350 333 0 16 14 328 319 327 338 322 312 327 34 57 47 82 32 101 211 202 218 239 203 217 193
261 268 277 287 290 291 291 298 305 314 314 312 321 331 342 347 349 355 351 13 12 357 36 59 272 254 316 325 306 11 351 325 298 10 95 29 76 206 223 213 83 158 193 239 253 213 197
258 261 269 280 288 287 285 286 296 306 311 312 321 333 340 343 353 9 30 66 72 299 320 305 269 266 270 349 329 340 353 24 5 313 55 22 235 239 225 217 221 268 240 245 329 179 137
265 262 263 270 280 279 277 279 285 292 300 308 319 333 339 339 351 22 61 65 38 328 280 297 289 276 296 22 342 319 15 323 27 326 155 168 230 299 170 189 183 203 209 210 199 181 23
260 263 265 264 265 271 271 271 275 280 289 298 312 329 339 342 125 9 62 9 355 35 62 283 283 291 96 352 332 341 3 81 352 318 340 243 302 292 295 187 119 222 330 197 133 102 222
258 260 262 262 261 263 265 263 268 273 278 287 304 321 340 354 41 89 342 332 330 241 10 249 211 224 158 95 285 340 345 13 83 311 74 263 352 344 243 227 157 186 75 61 47 84 48
256 257 259 259 258 257 258 252 252 259 266 278 291 309 323 266 345 17 331 326 127 46 258 312 171 214 358 115 262 338 8 40 193 349 340 238 276 238 216 356 235 156 81 57 54 77 4
254 253 256 255 256 255 253 242 239 242 257 268 276 289 269 232 177 323 330 53 30 136 348 245 208 187 231 200 216 210 287 322 125 53 350 334 265 288 175 75 345 80 89 11 358 3 227
253 250 252 253 254 252 248 232 233 231 235 249 254 252 217 224 302 286 81 60 169 225 217 302 158 264 203 160 241 238 314 321 210 113 87 104 329 203 274 218 188 206 172 169 196 189 249
257 250 244 246 244 247 231 221 217 220 224 218 225 231 228 217 269 186 87 114 211 202 178 148 291 185 311 178 186 182 222 240 143 183 152 142 276 260 193 4 120 192 213 236 91 43 67
266 245 245 240 241 236 210 204 203 201 203 196 198 210 230 187 214 130 83 236 217 226 142 130 213 195 178 202 168 178 210 276 94 90 142 241 309 204 263 51 261 178 213 65 349 164 232
277 244 240 238 232 211 199 194 191 188 186 181 182 203 180 170 163 59 188 227 218 23 80 187 203 261 124 175 192 192 245 331 60 301 128 179 139 292 77 198 188 174 220 182 134 151 170
269 270 240 234 211 200 193 186 185 182 170 168 192 204 168 164 115 216 193 204 172 161 37 72 152 207 219 226 225 227 217 227 325 190 125 99 181 247 233 264 217 197 205 165 138 234 207
284 272 249 211 193 186 189 182 177 178 172 160 167 197 181 178 185 219 258 198 171 162 169 149 192 217 68 189 236 205 156 204 16 95 160 164 230 328 334 346 341 221 235 223 121 105 190
280 270 210 187 182 185 177 174 175 179 179 162 192 171 163 179 202 184 182 208 199 184 171 154 200 222 97 252 237 271 197 211 33 112 101 148 214 191 206 227 9 305 305 254 193 134 185
273 208 185 179 176 169 169 172 186 181 179 206 177 216 190 165 206 191 236 261 185 175 204 183 197 199 200 219 215 211 18 353 23 348 69 121 217 252 261 276 273 261 267 273 226 231 200
223 184 166 164 160 157 165 186 187 181 187 244 174 150 105 174 134 190 209 236 199 159 153 196 171 163 172 209 230 130 140 200 219 332 89 19 195 327 281 272 276 270 257 246 242 240 239
188 168 157 154 155 164 182 183 181 183 199 232 145 114 139 158 139 151 205 201 206 134 12 33 156 156 202 236 206 248 224 262 230 211 263 159 132 66 257 324 320 283 229 228 237 232 231
171 153 145 146 147 148 159 179 196 211 209 238 178 131 108 191 171 193 172 176 157 139 145 173 136 146 173 99 278 264 254 251 229 238 204 179 179 168 261 357 244 245 304 240 238 247 263
146 140 136 131 133 147 170 191 203 198 196 220 165 148 140 189 174 132 152 125 106 95 130 161 165 161 149 71 26 308 295 296 240 220 199 201 170 243 231 213 297 311 332 320 179 230 328
136 130 127 131 132 138 141 139 155 173 190 202 143 137 116 127 234 99 142 149 145 147 93 103 68 135 72 101 169 204 230 241 287 247 20 183 205 201 188 217 243 202 310 317 328 280 355
129 131 133 133 134 132 125 121 129 150 170 177 115 141 108 111 329 79 140 164 128 107 122 139 157 84 58 143 191 205 250 246 251 221 183 130 187 225 237 253 277 303 305 293 139 264 348
134 135 135 136 138 134 124 116 115 127 137 147 101 110 129 112 54 49 87 121 86 117 146 193 74 354 72 174 198 222 202 263 320 272 206 169 171 196 202 237 260 339 10 105 319 336 344
137 139 139 140 137 133 125 117 114 116 131 137 108 93 89 83 117 75 89 102 77 150 131 46 148 143 174 92 283 124 196 41 191 269 330 236 191 215 203 230 104 60 30 289 237 276 308